This demonstration page uses our WeatherBlox Daily Observations layout. Learn more.

Left ArrowRight Arrow

Hourly Observations for May 7, 2015

Temp ( °F °C ) Dew Point ( °F °C ) Humidity (%) Winds ( mph kmh ) Pressure ( in mb ) Visibility ( mi km ) Precip ( " mm )
12:51 am 00:51 Clear 65 18.3 37 2.8 36 36 W 3 6 29.69 1005 10 16 0.00 0.00
1:51 am 01:51 Clear 61 16.1 37 2.8 41 41 NW 8 13 29.68 1005 10 16 0.00 0.00
2:51 am 02:51 Clear 58 14.4 37 2.8 46 46 E 5 7 29.69 1006 10 16 0.00 0.00
3:51 am 03:51 Clear 57 13.9 36 2.2 45 45 ESE 3 6 29.69 1006 10 16 0.00 0.00
4:51 am 04:51 Clear 52 11.1 35 1.7 53 53 E 5 7 29.72 1006 10 16 0.00 0.00
5:51 am 05:51 Sunny 53 11.7 35 1.7 51 51 SE 9 15 29.72 1007 10 16 0.00 0.00
6:51 am 06:51 Sunny 63 17.2 36 2.2 37 37 ESE 9 15 29.73 1007 10 16 0.00 0.00
7:51 am 07:51 Sunny 68 20 37 2.8 32 32 E 10 17 29.74 1007 10 16 0.00 0.00
8:51 am 08:51 Sunny 72 22.2 37 2.8 28 28 S 18 30 29.75 1007 10 16 0.00 0.00
9:51 am 09:51 Sunny 74 23.3 32 0 21 21 SSE 15 24 29.75 1007 10 16 0.00 0.00
10:51 am 10:51 Sunny 75 23.9 28 -2.2 18 18 SE 10 17 29.74 1007 10 16 0.00 0.00
11:51 am 11:51 Sunny 77 25 29 -1.7 17 17 SE 10 17 29.71 1006 10 16 0.00 0.00
12:51 pm 12:51 Sunny 80 26.7 25 -3.9 13 13 SSW 8 13 29.67 1005 10 16 0.00 0.00
1:51 pm 13:51 Sunny 82 27.8 26 -3.3 13 13 SSE 14 22 29.67 1005 10 16 0.00 0.00
2:51 pm 14:51 Sunny 82 27.8 26 -3.3 13 13 S 20 31 29.64 1004 10 16 0.00 0.00
3:12 pm 15:12 Sunny 83 28.3 25 -3.9 12 12 S 12 19 29.53 1000 10 16 0.00 0.00
3:51 pm 15:51 Sunny 83 28.3 23 -5 11 11 SSW 17 28 29.62 1003 10 16 0.00 0.00
4:51 pm 16:51 Sunny 80 26.7 25 -3.9 13 13 SSE 8 13 29.62 1003 10 16 0.00 0.00
5:51 pm 17:51 Mostly Sunny 79 26.1 26 -3.3 14 14 WSW 9 15 29.62 1003 10 16 0.00 0.00
6:51 pm 18:51 Sunny 77 25 30 -1.1 18 18 WNW 10 17 29.61 1003 10 16 0.00 0.00
7:51 pm 19:51 Clear 74 23.3 32 0 21 21 WSW 9 15 29.64 1004 10 16 0.00 0.00
8:51 pm 20:51 Mostly Cloudy 73 22.8 35 1.7 25 25 W 10 17 29.67 1005 10 16 0.00 0.00
9:51 pm 21:51 Clear 71 21.7 38 3.3 30 30 NW 9 15 29.69 1005 10 16 0.00 0.00
10:51 pm 22:51 Clear 68 20 39 3.9 35 35 NW 12 19 29.71 1006 10 16 0.00 0.00
11:51 pm 23:51 Clear 66 18.9 39 3.9 37 37 NW 12 19 29.71 1006 10 16 0.00 0.00

Powered by AerisWeather